{"data":{"norad_id":65842,"intl_designator":"2025-221V","name":"STARLINK-35298","alt_names":[],"object_type":"PAYLOAD","status":"ACTIVE","operator":null,"country":"US","launch_date":"2025-09-29","launch_site_code":"AFWTR","launch_vehicle":null,"mission":null,"orbit_class":"UNKNOWN","rcs_meters":null,"size_class":null,"mass_kg":null,"dimensions":null,"purposes":["comms"],"wikipedia_slug":null,"has_3d_model":false,"image_url":null,"decayed_at":null,"tle_current":{"epoch":"2026-05-25T03:27:04.059936Z","epoch_age_seconds":58744,"freshness":"FRESH","line1":"1 65842U 25221V   26145.14379699  .00013731  00000+0  41669-3 0  9996","line2":"2 65842  53.1585  92.8785 0001072  84.3070 275.8055 15.34405818 36443","mean_motion":15.34405818,"eccentricity":0.0001072,"inclination_deg":53.1585,"raan_deg":92.8785,"arg_perigee_deg":84.307,"mean_anomaly_deg":275.8055,"bstar":0.00041669,"rev_number":3644,"period_min":93.84740223919,"perigee_km":461.95261171964,"apogee_km":463.41928415968,"semimajor_km":6840.8229479397,"source":"CELESTRAK","updated_at":"2026-05-25T13:38:20.945994Z"}}}